Wind_Speed
59 59 60 60 60 59 58 57 55 53 51 50 48 46 43 42 42 40 39 37 36 34 33 32 30 29 29 28 27 27 26 26 25 25 26 27 27 27 27 26 26 26 25
62 63 63 64 64 64 63 62 61 59 57 54 52 49 47 45 44 42 41 39 37 35 34 32 31 30 29 29 27 26 26 26 25 24 25 26 26 27 26 25 25 25 25
64 64 65 65 66 66 66 65 65 63 61 59 57 54 52 49 47 45 43 41 38 37 35 33 32 31 30 29 28 26 26 25 25 24 24 25 26 26 26 25 25 24 24
68 69 69 70 70 70 70 69 68 68 66 64 62 59 56 53 50 48 46 43 41 39 37 35 33 31 30 29 28 27 26 25 24 24 24 24 25 25 26 25 24 24 24
71 72 74 75 75 75 75 75 75 75 73 70 67 65 61 57 55 52 49 47 44 41 39 37 35 32 31 30 29 27 26 25 24 24 24 24 25 24 24 24 24 24 24
68 69 69 71 72 74 76 77 78 79 78 77 75 72 68 65 62 58 54 51 48 45 43 39 36 34 32 31 30 28 27 26 24 24 23 24 25 25 24 23 23 23 23
54 53 53 55 57 60 63 67 70 73 75 76 76 76 73 70 66 62 58 55 51 47 43 41 38 35 33 32 31 29 28 26 25 24 24 24 24 24 23 22 22 23 23
39 37 37 36 37 39 41 44 47 51 56 61 65 68 69 68 67 65 60 56 53 49 44 41 38 35 33 33 32 30 28 27 25 24 23 22 23 24 23 23 24 23 23
33 33 32 31 31 30 31 31 33 34 37 41 45 50 53 56 58 58 57 55 53 49 44 41 39 36 34 33 32 30 27 26 24 24 23 23 23 23 22 21 22 22 21
34 33 33 32 31 30 30 29 28 28 29 31 32 34 38 42 45 48 50 51 50 47 43 40 38 36 34 33 32 29 27 25 23 23 23 22 22 22 22 21 20 20 19
38 37 37 36 34 33 31 29 28 27 27 27 26 28 30 33 37 41 43 45 46 45 41 39 37 35 33 32 31 29 26 25 23 22 22 21 20 19 19 19 19 19 17
41 40 39 38 36 34 32 30 28 27 25 24 23 24 25 28 32 37 40 42 43 42 40 39 37 35 32 30 29 27 25 23 21 21 20 19 18 18 18 18 18 18 15
42 41 40 39 37 35 33 31 29 27 25 24 22 21 22 25 28 33 38 41 42 42 42 39 36 34 31 29 27 24 22 21 20 19 18 17 16 17 17 16 16 15 15
44 42 41 39 37 35 33 31 30 28 26 25 23 21 21 21 24 29 33 40 42 42 41 39 36 33 30 27 25 24 21 20 20 18 18 18 18 17 17 17 17 16 15
43 41 39 38 35 33 32 31 30 28 27 25 23 22 21 20 21 25 30 35 41 42 40 37 35 33 29 26 24 22 20 19 19 19 18 18 19 19 18 18 17 15 14
40 39 38 37 35 33 32 30 29 28 27 25 23 23 22 20 21 23 26 31 38 41 39 37 35 31 28 26 24 23 23 22 21 20 20 20 20 19 18 17 16 15 14
37 36 34 33 32 31 30 28 27 26 25 24 23 23 22 21 21 23 25 27 34 39 38 36 34 31 29 28 26 25 24 23 22 22 21 21 20 18 17 16 16 15 14
33 31 30 28 27 27 26 25 25 24 24 23 23 22 22 21 22 24 25 27 32 36 36 35 34 32 30 29 27 26 25 24 23 22 21 20 19 18 17 16 15 14 13
27 26 24 24 23 23 22 22 21 21 20 20 21 20 19 21 23 24 25 28 31 34 36 35 34 32 31 30 29 27 26 25 23 23 21 20 19 18 16 15 14 14 13
22 20 18 16 17 17 17 18 18 18 18 18 19 18 19 21 23 25 27 30 33 34 35 35 34 33 32 31 29 27 26 24 23 22 21 19 18 17 16 15 14 14 13
16 14 11 9 10 11 13 14 15 15 16 17 18 19 20 22 24 26 30 33 34 34 36 35 34 33 32 30 29 27 25 23 22 21 20 18 17 16 15 15 14 14 15
11 6 3 3 5 7 11 13 14 15 17 18 19 20 21 22 25 30 32 34 35 36 36 35 34 32 31 29 28 26 24 22 20 19 18 17 17 16 16 15 15 15 16
9 5 3 3 6 9 12 15 16 16 18 19 20 21 22 26 30 32 34 36 37 36 35 34 33 31 30 28 26 25 22 21 19 19 18 17 16 16 16 16 16 16 17
13 11 10 10 11 13 14 15 17 18 21 23 23 24 27 30 33 35 36 37 36 35 34 33 31 30 28 26 24 22 21 19 18 17 17 17 16 16 16 16 17 18 19
18 17 17 17 18 18 19 20 21 23 25 26 26 28 31 34 35 35 36 35 35 33 32 30 29 27 25 23 21 20 18 17 17 16 16 16 16 16 17 17 18 19 20
22 22 22 22 22 23 24 25 25 27 27 28 30 34 35 34 34 35 34 34 33 31 29 28 26 24 22 20 18 17 16 16 16 16 16 16 16 17 17 18 19 20 21
Wind_Direction
279 278 278 277 277 276 275 275 274 272 271 269 268 266 267 268 268 268 268 269 271 273 277 280 284 288 293 293 293 293 290 284 277 269 264 260 257 257 257 256 254 254 255
277 277 276 276 275 274 273 272 271 270 269 268 267 265 264 263 263 263 263 265 266 269 272 276 279 283 288 290 291 292 289 285 278 271 264 260 257 256 256 255 254 253 255
277 276 275 274 274 273 272 271 270 269 268 266 265 264 262 260 260 259 261 262 262 264 268 272 275 279 284 287 288 289 288 285 278 272 265 259 256 255 255 255 254 254 255
277 275 274 273 272 271 270 270 269 268 268 267 265 264 262 260 260 259 259 259 260 262 264 268 271 275 279 283 285 286 286 284 279 274 265 259 256 255 254 255 255 254 253
278 276 274 273 271 270 269 269 268 268 267 266 265 264 262 260 259 258 257 259 260 261 262 264 267 270 274 279 282 282 283 281 277 274 266 258 254 253 252 253 253 252 252
281 279 276 274 273 271 269 268 267 267 267 265 264 263 262 260 260 258 257 258 259 259 259 261 263 265 269 274 278 278 279 277 274 271 263 258 254 252 251 251 252 252 251
288 285 282 280 277 275 273 271 269 267 266 265 264 263 261 260 259 257 257 256 256 257 256 257 258 260 265 270 274 275 274 273 271 267 262 258 252 249 247 247 247 250 251
295 295 294 292 289 286 282 279 275 271 268 266 264 262 261 259 258 257 256 255 254 253 253 254 255 257 261 266 270 272 270 267 267 262 258 255 250 246 246 249 247 248 249
295 295 295 295 296 295 293 290 284 279 275 270 265 262 258 256 254 252 250 249 248 248 248 250 251 254 258 262 265 267 266 263 261 258 255 253 248 244 241 243 243 246 244
295 295 294 294 295 295 294 292 289 285 281 276 269 262 255 249 244 242 242 241 241 241 241 243 246 249 253 258 260 262 262 257 253 252 251 249 246 242 239 239 238 237 234
293 292 292 291 291 291 290 289 287 285 282 278 273 263 254 245 237 231 230 228 229 230 232 236 239 243 247 252 254 255 256 253 248 246 244 241 238 237 234 232 228 225 221
291 290 289 288 287 286 285 284 284 282 280 277 274 267 255 244 234 224 220 217 217 219 223 226 231 235 240 245 247 248 247 246 243 240 238 235 231 226 224 220 215 206 204
290 288 286 285 283 281 281 279 277 276 275 274 271 266 258 246 233 222 216 211 209 210 214 218 223 227 232 236 239 238 237 236 233 228 225 219 216 211 206 199 193 189 188
289 287 285 283 279 276 275 274 272 271 269 269 266 262 256 247 235 223 216 210 205 203 205 209 215 220 224 227 228 228 226 223 217 210 207 206 203 197 193 189 185 183 184
289 286 283 280 276 273 271 269 267 265 263 261 259 255 251 244 233 223 218 211 203 196 196 202 207 212 216 218 216 214 210 206 200 196 194 193 190 187 183 179 179 180 181
290 287 282 276 272 270 269 266 262 260 258 255 252 246 242 238 231 222 218 210 202 193 190 194 200 204 206 207 205 203 199 196 191 187 187 186 182 180 179 178 178 179 181
292 288 282 276 270 267 265 262 257 255 253 248 244 239 237 233 228 220 213 206 200 193 188 189 194 198 199 198 197 193 189 187 185 183 181 179 178 177 178 179 181 184 189
293 288 282 275 268 263 259 255 252 249 246 240 236 233 229 225 220 210 204 199 195 192 186 186 190 192 192 192 190 187 183 182 181 180 178 178 179 179 181 184 189 193 200
298 291 282 273 264 258 253 249 243 240 234 229 226 222 218 213 207 201 196 190 188 188 186 185 186 186 186 185 182 180 179 179 180 179 180 180 182 184 187 192 198 205 215
302 294 285 271 260 251 243 236 230 225 219 214 210 208 203 199 197 191 185 183 183 184 184 182 180 180 179 177 176 175 176 177 178 180 182 184 188 191 196 202 210 220 230
313 299 283 267 253 236 224 215 210 206 202 198 195 192 189 187 184 180 179 179 178 179 178 175 175 175 175 174 173 174 176 178 181 184 187 190 194 199 206 214 224 233 242
336 326 294 258 219 199 192 188 185 185 184 181 179 178 178 178 177 173 173 174 174 172 170 171 173 173 173 173 173 175 178 181 185 189 193 197 203 209 217 225 235 245 253
11 26 64 108 137 151 157 160 163 167 168 168 167 167 167 167 166 165 165 166 167 166 167 170 171 171 172 173 175 177 180 184 188 193 198 204 211 219 226 235 244 252 260
48 64 83 102 118 130 141 148 150 152 153 154 154 155 155 156 157 158 160 161 163 164 165 167 169 170 171 174 177 180 184 189 193 199 205 212 220 228 236 245 253 260 266
61 73 86 96 107 114 120 126 130 136 140 142 146 148 149 151 153 155 156 157 159 160 163 166 168 170 172 176 180 184 188 194 200 206 213 221 229 236 244 252 258 264 269
69 77 85 92 98 104 111 118 122 127 131 135 139 142 144 147 150 152 153 154 156 159 162 165 168 171 175 179 183 187 194 202 208 214 221 229 236 243 249 256 262 268 274
Height
5759 5757 5754 5752 5751 5750 5750 5750 5750 5751 5751 5752 5752 5753 5754 5755 5755 5755 5755 5755 5755 5754 5753 5752 5751 5750 5748 5746 5744 5743 5741 5740 5741 5742 5742 5743 5745 5747 5750 5752 5754 5757 5759
5743 5740 5737 5735 5733 5732 5731 5732 5732 5733 5735 5736 5737 5739 5740 5742 5743 5743 5744 5744 5744 5744 5744 5744 5743 5742 5741 5739 5738 5736 5734 5733 5734 5734 5735 5736 5738 5740 5742 5744 5747 5749 5752
5724 5721 5719 5716 5714 5713 5712 5712 5713 5714 5716 5718 5720 5722 5724 5727 5728 5730 5731 5732 5733 5734 5734 5734 5734 5734 5733 5732 5730 5729 5728 5727 5727 5727 5728 5729 5731 5733 5735 5738 5740 5742 5745
5704 5701 5698 5695 5694 5692 5692 5692 5692 5693 5696 5698 5701 5704 5707 5710 5713 5715 5718 5720 5721 5723 5724 5725 5725 5725 5725 5724 5723 5722 5721 5720 5720 5721 5722 5723 5724 5726 5728 5731 5733 5736 5738
5681 5678 5674 5672 5670 5670 5669 5669 5670 5671 5674 5677 5680 5684 5688 5692 5696 5700 5703 5706 5709 5711 5713 5714 5715 5716 5716 5716 5715 5715 5714 5714 5714 5714 5715 5716 5718 5720 5722 5725 5727 5729 5732
5655 5652 5649 5646 5645 5644 5644 5645 5646 5647 5649 5652 5656 5661 5666 5672 5677 5683 5687 5691 5695 5699 5701 5703 5705 5706 5707 5707 5707 5707 5707 5707 5707 5708 5709 5710 5712 5714 5716 5719 5721 5724 5726
5631 5628 5625 5623 5622 5620 5620 5620 5621 5622 5623 5626 5630 5636 5643 5649 5656 5663 5669 5675 5680 5685 5688 5692 5694 5696 5697 5698 5699 5699 5700 5700 5700 5702 5703 5704 5706 5707 5710 5713 5715 5718 5720
5615 5612 5609 5607 5605 5603 5602 5600 5600 5600 5600 5602 5605 5611 5618 5625 5633 5641 5650 5657 5664 5670 5675 5679 5682 5685 5687 5689 5690 5691 5692 5693 5693 5695 5696 5698 5699 5701 5704 5707 5709 5712 5714
5604 5601 5598 5596 5594 5591 5589 5587 5586 5585 5585 5585 5586 5590 5595 5602 5610 5619 5629 5638 5647 5655 5661 5666 5670 5674 5677 5679 5681 5683 5684 5685 5686 5688 5690 5692 5694 5696 5699 5701 5704 5707 5710
5594 5591 5589 5586 5584 5582 5580 5578 5576 5574 5573 5573 5574 5576 5579 5584 5590 5599 5609 5620 5630 5639 5646 5652 5658 5662 5666 5669 5672 5674 5677 5678 5680 5681 5684 5686 5688 5690 5693 5696 5699 5702 5705
5583 5580 5578 5576 5574 5572 5570 5569 5567 5565 5564 5563 5563 5564 5567 5570 5575 5583 5592 5603 5613 5623 5632 5639 5646 5651 5656 5660 5663 5666 5669 5671 5673 5675 5678 5681 5683 5685 5688 5691 5694 5698 5700
5570 5568 5566 5564 5562 5561 5560 5559 5558 5556 5555 5555 5555 5555 5557 5559 5564 5570 5578 5588 5599 5610 5619 5627 5634 5641 5646 5651 5655 5658 5662 5664 5667 5670 5673 5676 5679 5681 5684 5687 5690 5693 5697
5556 5554 5552 5550 5549 5549 5548 5548 5548 5548 5547 5547 5548 5548 5549 5551 5555 5560 5567 5576 5587 5598 5607 5616 5623 5631 5637 5643 5647 5651 5655 5659 5662 5665 5668 5671 5675 5678 5681 5684 5688 5691 5695
5541 5539 5537 5536 5536 5536 5536 5536 5537 5538 5539 5539 5540 5541 5542 5544 5548 5552 5558 5566 5576 5587 5597 5606 5614 5622 5629 5636 5641 5645 5650 5654 5657 5661 5664 5668 5671 5675 5679 5682 5686 5690 5693
5525 5523 5522 5521 5522 5523 5524 5525 5526 5528 5529 5531 5532 5534 5536 5538 5542 5545 5550 5558 5567 5578 5588 5598 5606 5615 5623 5629 5635 5640 5645 5650 5654 5658 5662 5665 5669 5673 5677 5681 5684 5688 5691
5510 5508 5507 5506 5508 5509 5511 5513 5515 5517 5519 5521 5524 5527 5530 5533 5536 5540 5545 5552 5561 5571 5581 5592 5601 5610 5617 5624 5630 5636 5641 5646 5651 5655 5660 5664 5668 5672 5676 5679 5683 5687 5690
5495 5493 5492 5493 5494 5496 5499 5502 5504 5507 5509 5513 5516 5520 5523 5527 5531 5536 5541 5548 5557 5567 5577 5587 5596 5605 5613 5620 5627 5633 5638 5644 5649 5654 5658 5663 5667 5671 5675 5679 5682 5686 5689
5481 5480 5479 5480 5482 5484 5487 5491 5494 5497 5501 5504 5508 5512 5517 5521 5527 5532 5538 5546 5555 5564 5574 5584 5593 5601 5609 5617 5624 5630 5636 5642 5648 5652 5657 5662 5666 5670 5674 5678 5681 5684 5687
5470 5469 5468 5469 5471 5474 5478 5481 5485 5489 5493 5497 5502 5506 5511 5517 5523 5529 5536 5545 5554 5563 5572 5581 5590 5599 5607 5615 5622 5628 5635 5641 5646 5651 5656 5660 5665 5669 5673 5676 5679 5682 5685
5461 5461 5460 5461 5463 5466 5470 5474 5478 5483 5487 5492 5497 5503 5508 5514 5521 5528 5535 5544 5553 5563 5572 5581 5590 5598 5606 5614 5621 5628 5634 5640 5645 5650 5655 5659 5663 5667 5671 5674 5677 5680 5682
5456 5455 5455 5456 5458 5461 5465 5469 5474 5479 5484 5489 5495 5500 5506 5513 5520 5527 5536 5545 5554 5564 5573 5582 5590 5599 5607 5614 5621 5627 5634 5639 5644 5649 5654 5658 5662 5665 5669 5672 5674 5676 5678
5454 5453 5453 5455 5457 5459 5463 5467 5472 5477 5482 5488 5494 5500 5506 5513 5520 5528 5537 5547 5556 5565 5575 5584 5592 5600 5608 5615 5621 5627 5633 5638 5643 5648 5652 5656 5660 5663 5666 5669 5671 5673 5674
5455 5455 5455 5456 5458 5461 5465 5469 5474 5479 5484 5490 5495 5501 5508 5515 5522 5531 5540 5550 5559 5568 5577 5586 5594 5602 5609 5616 5622 5627 5633 5638 5642 5647 5650 5654 5657 5660 5663 5665 5667 5668 5669
5460 5460 5460 5461 5463 5466 5469 5473 5477 5482 5487 5493 5499 5505 5512 5519 5528 5537 5546 5554 5564 5572 5581 5589 5597 5604 5610 5617 5622 5627 5632 5637 5641 5645 5648 5651 5654 5657 5659 5661 5662 5663 5663
5469 5468 5468 5469 5470 5473 5476 5479 5483 5488 5493 5499 5505 5512 5519 5527 5535 5543 5552 5560 5569 5577 5585 5593 5600 5606 5612 5617 5623 5627 5632 5636 5640 5643 5646 5648 5651 5653 5655 5656 5657 5657 5657
5479 5478 5478 5479 5481 5483 5486 5489 5492 5497 5502 5508 5514 5521 5528 5536 5544 5551 5559 5567 5574 5582 5589 5596 5602 5608 5613 5618 5623 5627 5631 5634 5638 5640 5643 5645 5647 5649 5650 5651 5651 5651 5651